Regional Weather Roundup
Issued by NWS

Home | Current Version | Previous Version | Graphics & Text | Print | Product List | Glossary On
Versions: 1 2 3 4 5 6 7 8 9 10 11 12 13 14 15 16 17 18 19 20 21 22 23 24 25 26 27 28 29 30 31 32 33 34 35 36 37 38 39 40 41 42 43 44 45 46 47 48 49 50
828
ASUS43 KMPX 082310
RWRMN
WEATHER ROUNDUP FOR MINNESOTA
NATIONAL WEATHER SERVICE TWIN CITIES/CHANHASSEN MN
500 PM CST MON FEB 08 2016


NOTE: "FAIR" INDICATES FEW OR NO CLOUDS BELOW 12,000 FEET WITH NO
SIGNIFICANT WEATHER AND/OR OBSTRUCTIONS TO VISIBILITY. N/A MEANS
CURRENT SKY AND/OR WEATHER CONDITIONS ARE NOT AVAILABLE.

MNZ060>063-068>070-090000-
   Twin Cities Metro

CITY           SKY/WX    TMP DP  RH WIND       PRES   REMARKS
TWIN CITIES    FLURRIES  16   6  65 NW18G26   29.97R WCI   0
ST PAUL        LGT SNOW  16   9  74 NW16      29.97S WCI   1
CRYSTAL        LGT SNOW  17   6  62 NW21G31   29.96S WCI   0
BLAINE         LGT SNOW  18   9  68 NW14G24   29.95S WCI   4
LAKEVILLE      CLOUDY    14   9  79 NW20G29   29.94S HAZE    WCI  -3
EDEN PRAIRIE   CLOUDY    17   6  62 NW15G23   29.96S WCI   2
SOUTH ST PAUL  CLOUDY    16   9  72 NW14      29.96R HAZE    WCI   2
LAKE ELMO      LGT SNOW  18  10  73 NW10      29.95S WCI   6
$$
MNZ001>005-007-008-013>017-022>024-027-028-090000-
   Northwest Minnesota

CITY           SKY/WX    TMP DP  RH WIND       PRES   REMARKS
BEMIDJI        CLOUDY     8   2  78 NW18G26   30.04R HAZE    WCI -11
HALLOCK        CLOUDY    10   3  72 NW20G28   30.21S WCI  -8
ROSEAU         CLOUDY    10   3  72 NW21      30.13R HAZE    WCI  -9
WARROAD        LGT SNOW   9   3  78 NW15G22   30.12R WCI  -8
CROOKSTON      PTCLDY    10   7  85 N29       30.21R FOG     WCI -11
FOSSTON        CLOUDY     9   3  78 NW14      30.12R HAZE    WCI  -8
DETROIT LAKES  CLOUDY    10   7  85 NW22G31   30.11R FOG     WCI  -9
MOORHEAD         N/A     10   9  92 N23G35    30.19F WCI -10
PARK RAPIDS    MIX PCPN  10   1  67 NW22G33   30.03R WCI -10
MAHNOMEN       LGT SNOW   9   6  86 NW24      30.11S WCI -12
$$
MNZ006-009>011-018-025>026-090000-
   North Central Minnesota

CITY           SKY/WX    TMP DP  RH WIND       PRES   REMARKS
BAUDETTE       LGT SNOW   6  -2  69 NW15G25   30.06R WCI -12
FLAG ISLAND    CLOUDY     5  -2  72 N20G30    30.11R WCI -15
INTL FALLS     LGT SNOW   5  -3  69 NW20      30.02R WCI -15
WASKISH        FLURRIES   9   1  72 NW14G22   30.06R WCI  -8
LONGVILLE      LGT SNOW  10   3  72 NW10G22   29.99F WCI  -3
GRAND RAPIDS   CLOUDY     7   0  72 NW21G29   29.96R WCI -13
CRANE LAKE     CLOUDY     5   1  85 NW10G17   29.99R WCI -10
ORR            LGT SNOW   5  -2  72 NW14G21   29.94R WCI -12
COOK           LGT SNOW   7   0  72 NW9G18    29.95S WCI  -7
WALKER         FLURRIES   8   1  72 NW23G30   30.01S WCI -12
$$
MNZ012-019>021-037-090000-
   Northeast Minnesota

CITY           SKY/WX    TMP DP  RH WIND       PRES   REMARKS
DULUTH         LGT SNOW   8   0  69 NW15      29.88R BLWGSNOWWCI  -9
ELY            FLURRIES   7   1  78 NW12G23   29.89R WCI  -9
HIBBING        LGT SNOW   6   1  80 NW16      29.94R WCI -12
EVELETH        LGT SNOW   9   1  72 NW14G21   29.93R WCI  -8
DULUTH HARBOR  CLOUDY    14   5  67 NW17      29.97R WCI  -3
TWO HARBORS    CLOUDY    12   3  67 NW12G18   29.87R WCI  -2
SILVER BAY     LGT SNOW  12   3  67 W6        29.85R WCI   3
GRAND MARAIS     N/A     12   1  61 CALM      29.87R
G MARAIS ARPRT LGT SNOW   3  -2  78 NW16G25   29.75R WCI -16
$$
MNZ029>031-032-039>041-046>048-054>057-064-090000-
   West Central Minnesota

CITY           SKY/WX    TMP DP  RH WIND       PRES   REMARKS
FERGUS FALLS   MOCLDY    10   3  72 N23G33    30.16R WCI -10
WHEATON        CLOUDY    16   9  73 NW22G36   30.18R WCI  -2
MORRIS         PTCLDY    16   7  67 NW30G40   30.09S HAZE    WCI  -4
ALEXANDRIA     CLOUDY    11   2  67 NW21G33   30.05S WCI  -8
ELBOW LAKE     LGT SNOW  11   6  79 N23G30    30.12R WCI  -9
WADENA         CLOUDY    10   3  72 NW21G26   30.04S WCI  -9
GLENWOOD       PTCLDY    10   3  72 NW23G31   30.05R WCI -10
APPLETON       LGT SNOW  16  10  79 N28       30.12S WCI  -4
BENSON         FLURRIES  12   7  79 N18G25    30.10R WCI  -5
ORTONVILLE     MOCLDY    16   9  73 N25G31    30.13S WCI  -3
MADISON        CLOUDY    18   9  68 N28G35    30.13S WCI  -1
WILLMAR        MOCLDY    16   7  67 NW24G31   30.07R WCI  -3
$$
MNZ033>034-036-042>043-049>051-058-059-090000-
   Central Minnesota

CITY           SKY/WX    TMP DP  RH WIND       PRES   REMARKS
ST CLOUD       CLOUDY    15   5  64 NW18G31   29.98S WCI  -2
SAUK CENTRE    FAIR      11   4  72 NW24G32   30.02S HAZE    WCI  -9
PAYNESVILLE    CLOUDY    13   6  72 NW16G29   30.03S WCI  -3
AITKIN         FLURRIES  12   1  62 NW9G20    29.96R WCI   0
PINE RIVER     CLOUDY    10   3  72 NW13G24   30.03S WCI  -5
BRAINERD       LGT SNOW  11   3  70 NW18      29.99S WCI  -7
STAPLES        CLOUDY    10   3  72 NW22G28   30.01F WCI  -9
LONG PRAIRIE   CLOUDY    10   3  72 NW21G29   30.02S HAZE    WCI  -9
LITTLE FALLS   CLOUDY    14   5  67 NW13G20   30.00S WCI   0
LITCHFIELD     CLOUDY    16   9  73 NW22G29   30.02R WCI  -2
BUFFALO        CLOUDY    16   8  69 NW17      29.99S WCI   0
MAPLE LAKE     CLOUDY    16   8  71 NW18G24   30.00S WCI   0
$$
MNZ037-044-045-052-053-090000-
   East Central Minnesota

CITY           SKY/WX    TMP DP  RH WIND       PRES   REMARKS
PRINCETON      FLURRIES  16   9  73 NW15      29.97R WCI   1
MORA           FLURRIES  14   7  73 NW12G20   29.97S WCI   0
CAMBRIDGE      FLURRIES  16   7  67 NW10G16   29.95S WCI   3
RUSH CITY      CLOUDY    14   6  72 NW12G18   29.96S WCI   0
MOOSE LAKE     CLOUDY    12   3  67 NW14G21   29.93R WCI  -3
HINCKLEY       CLOUDY    14   7  73 NW14G21   29.95R WCI  -1
CLOQUET        FLURRIES  10   1  67 NW17G24   29.91R WCI  -7
MCGREGOR       CLOUDY    12   5  73 NW18G29   29.96R WCI  -5
$$
MNZ071>073-080-081-089-090-097-098-090000-
   Southwest Minnesota

CITY           SKY/WX    TMP DP  RH WIND       PRES   REMARKS
MONTEVIDEO     PTCLDY    16   9  73 N25G36    30.11S WCI  -3
GRANITE FALLS  PTCLDY    18   9  68 NW24G39   30.12R WCI   0
CANBY          FLURRIES  19  15  82 NW17      30.13R WCI   4
MARSHALL       FLURRIES  16  10  77 N32       30.07F WCI  -5
REDWOOD FALLS  PTCLDY    15   5  64 NW26G37   30.06R WCI  -4
OLIVIA         PTCLDY    18   9  68 NW28G37   30.05R WCI  -1
PIPESTONE      CLOUDY    21  12  68 N18G25    30.06S WCI   6
WINDOM         SNOW      16  10  79 NW30      30.03R VSB 1/4 WCI  -4
WORTHINGTON    MOCLDY    18   9  68 NW23      30.06R WCI   0
JACKSON        MOCLDY    18   9  68 NW28G37   30.02R WCI  -1
TRACY          CLEAR     17  11  77 N24G33    30.07R WCI  -1
SLAYTON        MOCLDY    15  13  89 NW21G28   30.06R FOG     WCI  -2
$$
MNZ065>067-074>077-082>085-091>093-090000-
   South Central Minnesota

CITY           SKY/WX    TMP DP  RH WIND       PRES   REMARKS
MANKATO        CLOUDY   N/A N/A N/A NW23G29   29.98R
NEW ULM        LGT SNOW  16   9  73 NW31G38   29.98F WCI  -5
ST JAMES       LGT SNOW  18  12  79 NW25G36   30.03R WCI  -1
FAIRMONT       CLOUDY    18   9  68 NW29G37   29.98F VSB 1   WCI  -2
GLENCOE        CLOUDY    17  11  77 NW21      29.99S WCI   0
FARIBAULT      LGT SNOW  16   7  67 NW18G24   29.95S WCI  -1
OWATONNA       LGT SNOW  16   9  73 NW20      29.94S WCI  -1
WASECA         CLOUDY    18  10  73 NW20      29.97S WCI   1
ALBERT LEA     LGT SNOW  16  10  79 NW14G28   29.93S WCI   1
$$
MNZ078>079-086>088-094>096-090000-
   Southeast Minnesota

CITY           SKY/WX    TMP DP  RH WIND       PRES   REMARKS
ROCHESTER      LGT SNOW  13   7  77 NW22      29.89R WCI  -6
RED WING       LGT SNOW  16   7  67 NW12G17   29.93S WCI   3
STANTON        LGT SNOW  16  11  79 NW16      29.94S WCI   1
DODGE CENTER   LGT SNOW  12   9  85 NW17G23   29.90R WCI  -5
WINONA         CLOUDY    18   9  68 N12G23    29.92S WCI   5
AUSTIN         LGT SNOW  12  10  92 NW20G26   29.91R WCI  -6
PRESTON        CLOUDY    13   6  72 NW15G21   29.88S WCI  -3
$$
ABBREVIATIONS USED IN REMARKS
   TC - TEMPERATURES IN CELSIUS
  WCI - WIND CHILL INDEX
   HX - HEAT INDEX
  VSB - VISIBILITY
$$




USA.gov is the U.S. government's official web portal to all federal, state and local government web resources and services.